Regional Weather Roundup
Issued by NWS

Home | Current Version | Previous Version | Text Only | Print | Product List | Glossary Off
Versions: 1 2 3 4 5 6 7 8 9 10 11 12 13 14 15 16 17 18 19 20 21 22 23 24 25 26 27 28 29 30 31 32 33 34 35 36 37 38 39 40 41 42 43 44 45 46 47 48 49 50

000
ASUS43 KIND 012259
RWRIN

WEATHER ROUNDUP FOR INDIANA
NATIONAL WEATHER SERVICE INDIANAPOLIS IN
600 PM EST SUN MAR 01 2015

NOTE: "FAIR" INDICATES FEW OR NO CLOUDS BELOW 12,000 FEET WITH NO
SIGNIFICANT WEATHER AND/OR OBSTRUCTIONS TO VISIBILITY.

* - STATION DOES NOT REPORT WEATHER SUCH AS PRECIPITATION OR FOG.

+ - STATION NOT QUALITY CONTROLLED BY THE NATIONAL WEATHER SERVICE.
    USE DATA WITH CAUTION...ESPECIALLY DEWPOINT AND RELATIVE
    HUMIDITY OBSERVATIONS.

INZ001>003-010>013-019-020-020000-
NORTHWEST INDIANA

CITY           SKY/WX    TMP DP  RH WIND       PRES   REMARKS
GARY /AIRPORT/ MOCLDY    27  16  63 SW12      30.28S WCI  16
KNOX *+          N/A     23  10  58 W7        30.28R WCI  15
MONTICELLO +   PTCLDY    23  19  84 W5        30.28F WCI  17
VALPARAISO     NOT AVBL

$$

LMZ046-743>745-020000-
SOUTHERN LAKE MICHIGAN

STATION/POSITION TIME  TEMP WIND        PRES
                       AIR  DIR/SP/G
                 (UTC) (F)  (DEG/KT/KT) (MB)
MICHIGAN CITY    2200   23  220/  5/  6   N/A

$$

INZ004-005-014>016-021>024-020000-
NORTH CENTRAL INDIANA

CITY           SKY/WX    TMP DP  RH WIND       PRES   REMARKS
ELKHART        MOCLDY    25  14  63 SW7       30.26S WCI  17
GOSHEN         PTCLDY    22  16  78 SW7       30.25S WCI  13
SOUTH BEND     CLOUDY    25  17  72 SW8       30.27S WCI  16

$$

INZ006>009-017-018-025>027-020000-
NORTHEAST INDIANA

CITY           SKY/WX    TMP DP  RH WIND       PRES   REMARKS
ANGOLA *+      CLEAR     23  18  80 W5        30.23S WCI  17
FORT WAYNE     MOCLDY    23  18  81 W6        30.27S WCI  16

$$

INZ028-029-035-036-043>045-051>053-020000-
WEST CENTRAL INDIANA

CITY           SKY/WX    TMP DP  RH WIND       PRES   REMARKS
CRAWFORDSVL +  CLOUDY    25  19  77 NW6       30.29F WCI  18
GREENCASTLE +  CLOUDY    30  25  80 NW3       30.28F
LAFAYETTE      MOCLDY    24  20  84 NW6       30.29F WCI  17
TERRE HAUTE    CLOUDY    29  24  82 NW7       30.31S WCI  22

$$

INZ030>032-037>040-046>048-054>057-064-065-020000-
CENTRAL INDIANA

CITY           SKY/WX    TMP DP  RH WIND       PRES   REMARKS
CP ATTERBURY + CLOUDY    32  30  93 CALM      30.29S
COLUMBUS       CLOUDY    30  28  93 CALM      30.27F FOG
FRANKFORT +    CLOUDY    27  25  89 W7        30.29F WCI  20
GREENWOOD *+   CLOUDY    30  25  80 CALM      30.27F
INDIANAPOLIS   CLOUDY    29  25  85 NW7       30.27F WCI  22
-EAGLE CREEK   CLOUDY    27  24  89 NW6       30.27F WCI  20
KOKOMO *+      PTCLDY    25  18  74 W7        30.28S WCI  17
MT COMFORT *+  CLOUDY    30  27  86 N5        30.26F WCI  25
SHELBYVILLE    CLOUDY    33  28  81 CALM      30.25F HAZE
ZIONSVILLE +   CLOUDY    28  23  81 NW5       30.26F WCI  23

$$

INZ033-034-041-042-049-050-058-059-020000-
EAST CENTRAL INDIANA

CITY           SKY/WX    TMP DP  RH WIND       PRES   REMARKS
MUNCIE         CLOUDY    27  23  85 W6        30.26S WCI  20

$$

INZ060-061-067>069-081>083-085>088-020000-
SOUTHWEST INDIANA

CITY           SKY/WX    TMP DP  RH WIND       PRES   REMARKS
EVANSVILLE     CLOUDY    35  30  82 NW5       30.34R WCI  31
HUNTINGBURG *+ MOCLDY    34  30  86 W6        30.33R WCI  29

$$

INZ062-063-066-070>080-084-089>092-020000-
SOUTH CENTRAL AND SOUTHEAST INDIANA

CITY           SKY/WX    TMP DP  RH WIND       PRES   REMARKS
BLOOMINGTON    CLOUDY    32  30  92 VRB6      30.28S WCI  26
SEYMOUR +      LGT RAIN  34  32  93 CALM      30.29F VSB 1/2

$$




USA.gov is the U.S. government's official web portal to all federal, state and local government web resources and services.